Regional Weather Roundup
Issued by NWS Raleigh/Durham, NC

Home | Current Version | Previous Version | Text Only | Print | Product List | Glossary On
Versions: 1 2 3 4 5 6 7 8 9 10 11 12 13 14 15 16 17 18 19 20 21 22 23 24 25 26 27 28 29 30 31 32 33 34 35 36 37 38 39 40 41 42 43 44 45 46 47 48 49 50
000
ASUS42 KRAH 231610
RWRRAH
NORTH CAROLINA WEATHER ROUNDUP
NATIONAL WEATHER SERVICE RALEIGH NC
1200 PM EDT TUE SEP 23 2014

NOTE: "FAIR" INDICATES FEW OR NO CLOUDS BELOW 12,000 FEET WITH NO
SIGNIFICANT WEATHER AND/OR OBSTRUCTIONS TO VISIBILITY.

NCZ001-053-055-056-065-067-231700-
WESTERN NORTH CAROLINA

CITY           SKY/WX    TMP DP  RH WIND       PRES   REMARKS
ASHEVILLE      NOT AVBL
JEFFERSON      NOT AVBL
HICKORY        NOT AVBL
RUTHERFORDTON  NOT AVBL
MOUNT AIRY     NOT AVBL
BOONE          NOT AVBL
$$

NCZ021-022-025-041-071-084-088-231700-
CENTRAL NORTH CAROLINA

CITY           SKY/WX    TMP DP  RH WIND       PRES   REMARKS
CHARLOTTE      NOT AVBL
GREENSBORO     CLOUDY    58  46  64 NE10G18   30.34F
WINSTON-SALEM  CLOUDY    58  45  62 NE7       30.36F
RALEIGH-DURHAM CLOUDY    60  48  64 NE8       30.33S
FORT BRAGG     CLOUDY    62  51  67 NE12G18   30.27F
FAYETTEVILLE   CLOUDY    62  51  67 NE10      30.26F
BURLINGTON     CLOUDY    60  46  59 N9        30.34S
LAURINBURG     CLOUDY    60  53  77 NE12      30.29S
$$

NCZ011-015-027-028-043-044-047-080-103-231700-
NORTHEASTERN NORTH CAROLINA

CITY           SKY/WX    TMP DP  RH WIND       PRES   REMARKS
ROCKY MT-WILSO CLOUDY    62  51  67 N8        30.31S
GREENVILLE     CLOUDY    63  52  67 N10       30.30F
WASHINGTON     CLOUDY    62  55  77 N8        30.29S
ELIZABETH CITY NOT AVBL
MANTEO         CLOUDY    68  57  68 N9G17     30.27R
CAPE HATTERAS  CLOUDY    69  62  78 NE13G23   30.22S
$$

NCZ078-087-090-091-093-098-101-231700-
SOUTHEASTERN NORTH CAROLINA

CITY           SKY/WX    TMP DP  RH WIND       PRES   REMARKS
LUMBERTON      LGT RAIN  61  54  77 NE9G20    30.26R
GOLDSBORO      CLOUDY    63  56  78 N8        30.27F
KINSTON        CLOUDY    63  54  72 N8        30.29S
KENANSVILLE    CLOUDY    62  52  68 N12       30.29R
NEW BERN       CLOUDY    65  56  72 N13       30.26S
CHERRY POINT   CLOUDY    67  59  75 N14       30.24S
BEAUFORT       CLOUDY    70  62  76 NE15G25   30.21S
JACKSONVILLE   LGT RAIN  65  57  75 N14G22    30.22F
WILMINGTON     LGT RAIN  63  60  90 N13       30.22S
$$




USA.gov is the U.S. government's official web portal to all federal, state and local government web resources and services.